Location: Lake Lucerne
(45.5315°N, 88.8489°W)
Time: 03:57:52

ISS - Pass Details

Date: 04 March 2018
Orbit: 403 x 406 km, 51.6° (Epoch: 21 March)

Event Time Altitude Azimuth Distance (km) Brightness Sun altitude
Exits shadow 03:35:04 11° 86° (E) 1,381 -0.4 -30.5°
Drops below altitude 10° 03:35:19 10° 83° (E) 1,465 -0.2 -30.5°
Sets 03:37:39 0° 69° (ENE) 2,328 1.2 -30.1°
